When you browse on this site, cookies collect data to enhance your experience and personalize the content and advertising you see.
Visit our Privacy Policy to learn more. By continuing to use the site, you agree to this use of cookies and data.
  • In Austria
  • List of Countries
  • For 7 days
  • Water Temperature
  • Satellite Maps
  • Weather Map
  • News
  • Weather Widgets
  • user-avatar
    Login

    Hourly Weather Rigny-Ussé

    Today, 20 April, Saturday

    Time Temperature Precipitation Wind Pressure Humidity
    00:00 +15°C° 0 mm 2 mps 763 mmHg 80%
    01:00 +14°C° 0 mm 2 mps 763 mmHg 82%
    02:00 +14°C° 0 mm 2 mps 763 mmHg 84%
    03:00 +13°C° 0 mm 2 mps 763 mmHg 86%
    04:00 +13°C° 0 mm 2 mps 763 mmHg 87%
    05:00 +13°C° 0 mm 2 mps 763 mmHg 88%
    06:00 +14°C° 0 mm 2 mps 763 mmHg 87%
    07:00 +16°C° 0 mm 3 mps 763 mmHg 82%
    08:00 +17°C° 0 mm 3 mps 763 mmHg 77%
    09:00 +19°C° 0 mm 3 mps 763 mmHg 72%
    10:00 +21°C° 0 mm 4 mps 763 mmHg 67%
    11:00 +22°C° 0 mm 5 mps 763 mmHg 61%
    12:00 +25°C° 0 mm 5 mps 762 mmHg 53%
    13:00 +25°C° 0.2 mm 5 mps 762 mmHg 51%
    14:00 +26°C° 0.2 mm 5 mps 762 mmHg 49%
    15:00 +26°C° 0.2 mm 5 mps 761 mmHg 47%
    16:00 +23°C° 0 mm 4 mps 761 mmHg 52%
    17:00 +22°C° 0 mm 4 mps 761 mmHg 58%
    18:00 +21°C° 0 mm 4 mps 761 mmHg 63%
    19:00 +19°C° 0 mm 3 mps 761 mmHg 63%
    20:00 +18°C° 0 mm 3 mps 761 mmHg 63%
    21:00 +16°C° 0 mm 3 mps 761 mmHg 63%
    22:00 +14°C° 0 mm 3 mps 761 mmHg 67%
    23:00 +14°C° 0 mm 3 mps 761 mmHg 71%

    Tomorrow, 21 April, Sunday

    Time Temperature Precipitation Wind Pressure Humidity
    00:00 +13°C° 0 mm 3 mps 761 mmHg 75%
    01:00 +12°C° 0 mm 3 mps 761 mmHg 78%
    02:00 +13°C° 0 mm 2 mps 760 mmHg 80%
    03:00 +12°C° 0 mm 2 mps 760 mmHg 83%
    04:00 +12°C° 0 mm 2 mps 760 mmHg 84%
    05:00 +12°C° 0 mm 2 mps 760 mmHg 86%
    06:00 +12°C° 0 mm 1 mps 759 mmHg 87%
    07:00 +14°C° 0 mm 1 mps 759 mmHg 81%
    08:00 +16°C° 0 mm 2 mps 759 mmHg 75%
    09:00 +18°C° 0 mm 2 mps 759 mmHg 69%
    10:00 +19°C° 0 mm 2 mps 758 mmHg 64%
    11:00 +21°C° 0 mm 2 mps 758 mmHg 59%
    12:00 +22°C° 0 mm 3 mps 757 mmHg 55%
    13:00 +24°C° 0 mm 3 mps 757 mmHg 52%
    14:00 +24°C° 0 mm 3 mps 756 mmHg 50%
    15:00 +25°C° 0 mm 3 mps 756 mmHg 47%
    16:00 +23°C° 0.1 mm 2 mps 755 mmHg 54%
    17:00 +21°C° 0.1 mm 2 mps 755 mmHg 60%
    18:00 +21°C° 0.1 mm 1 mps 755 mmHg 66%
    19:00 +19°C° 0.1 mm 1 mps 755 mmHg 69%
    20:00 +18°C° 0.1 mm 1 mps 755 mmHg 73%
    21:00 +16°C° 0.1 mm 1 mps 754 mmHg 76%
    22:00 +15°C° 0 mm 1 mps 754 mmHg 79%
    23:00 +15°C° 0 mm 2 mps 754 mmHg 82%

    Day after tomorrow, 22 April, Monday

    Time Temperature Precipitation Wind Pressure Humidity
    00:00 +14°C° 0 mm 2 mps 753 mmHg 85%
    01:00 +14°C° 0 mm 2 mps 753 mmHg 87%
    02:00 +13°C° 0 mm 2 mps 752 mmHg 90%
    03:00 +12°C° 0 mm 2 mps 751 mmHg 92%
    04:00 +12°C° 0 mm 2 mps 751 mmHg 91%
    05:00 +12°C° 0 mm 2 mps 751 mmHg 91%
    06:00 +12°C° 0 mm 2 mps 750 mmHg 91%
    07:00 +14°C° 0 mm 2 mps 750 mmHg 82%
    08:00 +16°C° 0 mm 2 mps 750 mmHg 74%
    09:00 +18°C° 0 mm 2 mps 749 mmHg 65%
    10:00 +20°C° 0 mm 2 mps 749 mmHg 59%
    11:00 +21°C° 0 mm 2 mps 748 mmHg 53%
    12:00 +23°C° 0 mm 2 mps 747 mmHg 48%
    13:00 +24°C° 0 mm 3 mps 747 mmHg 49%
    14:00 +23°C° 0 mm 4 mps 746 mmHg 50%
    15:00 +23°C° 0 mm 4 mps 745 mmHg 51%
    16:00 +22°C° 0.3 mm 4 mps 745 mmHg 58%
    17:00 +21°C° 0.3 mm 3 mps 744 mmHg 65%
    18:00 +20°C° 0.3 mm 2 mps 744 mmHg 72%
    19:00 +18°C° 0.5 mm 2 mps 744 mmHg 76%
    20:00 +17°C° 0.5 mm 2 mps 744 mmHg 80%
    21:00 +16°C° 0.5 mm 2 mps 744 mmHg 85%
    22:00 +15°C° 0.7 mm 2 mps 743 mmHg 87%
    23:00 +15°C° 0.7 mm 2 mps 743 mmHg 89%

    23 April, Tuesday

    Time Temperature Precipitation Wind Pressure Humidity
    00:00 +15°C° 0.7 mm 2 mps 743 mmHg 91%
    01:00 +15°C° 0 mm 2 mps 743 mmHg 89%
    02:00 +14°C° 0 mm 2 mps 742 mmHg 88%
    03:00 +14°C° 0 mm 2 mps 742 mmHg 86%
    04:00 +14°C° 0.5 mm 2 mps 742 mmHg 86%
    05:00 +14°C° 0.5 mm 2 mps 742 mmHg 86%
    06:00 +14°C° 0.5 mm 2 mps 742 mmHg 87%
    07:00 +14°C° 0.2 mm 3 mps 742 mmHg 81%
    08:00 +17°C° 0.2 mm 3 mps 742 mmHg 76%
    09:00 +18°C° 0.2 mm 4 mps 742 mmHg 71%
    10:00 +19°C° 0.1 mm 5 mps 742 mmHg 69%
    11:00 +19°C° 0.1 mm 5 mps 741 mmHg 67%
    12:00 +20°C° 0.1 mm 6 mps 741 mmHg 65%
    13:00 +20°C° 0.2 mm 5 mps 741 mmHg 66%
    14:00 +20°C° 0.2 mm 4 mps 741 mmHg 68%
    15:00 +19°C° 0.2 mm 3 mps 740 mmHg 69%
    16:00 +19°C° 1 mm 3 mps 740 mmHg 75%
    17:00 +18°C° 1 mm 2 mps 740 mmHg 80%
    18:00 +17°C° 1 mm 2 mps 740 mmHg 85%
    19:00 +16°C° 0.3 mm 3 mps 741 mmHg 88%
    20:00 +14°C° 0.3 mm 3 mps 742 mmHg 92%
    21:00 +13°C° 0.3 mm 4 mps 742 mmHg 95%
    22:00 +12°C° 0.2 mm 4 mps 742 mmHg 94%
    23:00 +11°C° 0.2 mm 4 mps 743 mmHg 94%

    24 April, Wednesday

    Time Temperature Precipitation Wind Pressure Humidity
    00:00 +11°C° 0.2 mm 4 mps 743 mmHg 93%
    01:00 +10°C° 0.3 mm 3 mps 743 mmHg 94%
    02:00 +10°C° 0.3 mm 3 mps 744 mmHg 95%
    03:00 +9°C° 0.3 mm 3 mps 744 mmHg 96%
    04:00 +9°C° 0 mm 3 mps 745 mmHg 96%
    05:00 +9°C° 0 mm 3 mps 745 mmHg 96%
    06:00 +9°C° 0 mm 3 mps 745 mmHg 96%
    07:00 +10°C° 0.1 mm 4 mps 746 mmHg 91%
    08:00 +11°C° 0.1 mm 4 mps 746 mmHg 86%
    09:00 +12°C° 0.1 mm 4 mps 746 mmHg 81%
    10:00 +12°C° 0.6 mm 5 mps 746 mmHg 79%
    11:00 +13°C° 0.6 mm 6 mps 746 mmHg 77%
    12:00 +12°C° 0.6 mm 7 mps 746 mmHg 75%
    13:00 +12°C° 0.5 mm 7 mps 746 mmHg 72%
    14:00 +13°C° 0.5 mm 8 mps 746 mmHg 69%
    15:00 +13°C° 0.5 mm 8 mps 745 mmHg 66%
    16:00 +12°C° 0.1 mm 7 mps 745 mmHg 68%
    17:00 +13°C° 0.1 mm 6 mps 746 mmHg 70%
    18:00 +12°C° 0.1 mm 4 mps 746 mmHg 72%
    19:00 +12°C° 0.1 mm 5 mps 746 mmHg 73%
    20:00 +10°C° 0.1 mm 5 mps 746 mmHg 73%
    21:00 +10°C° 0.1 mm 6 mps 746 mmHg 73%
    22:00 +10°C° 0.9 mm 7 mps 746 mmHg 78%
    23:00 +10°C° 0.9 mm 8 mps 746 mmHg 83%

    25 April, Thursday

    Time Temperature Precipitation Wind Pressure Humidity
    00:00 +10°C° 0.9 mm 8 mps 746 mmHg 88%
    01:00 +9°C° 2.3 mm 7 mps 746 mmHg 90%
    02:00 +9°C° 2.3 mm 6 mps 746 mmHg 92%
    03:00 +9°C° 2.3 mm 5 mps 746 mmHg 94%
    04:00 +8°C° 0.6 mm 5 mps 746 mmHg 93%
    05:00 +8°C° 0.6 mm 5 mps 747 mmHg 92%
    06:00 +8°C° 0.6 mm 5 mps 747 mmHg 92%
    07:00 +8°C° 0.4 mm 5 mps 747 mmHg 90%
    08:00 +9°C° 0.4 mm 6 mps 748 mmHg 89%
    09:00 +9°C° 0.4 mm 6 mps 749 mmHg 88%
    10:00 +10°C° 0.6 mm 6 mps 749 mmHg 82%
    11:00 +11°C° 0.6 mm 7 mps 750 mmHg 77%
    12:00 +12°C° 0.6 mm 8 mps 750 mmHg 71%
    13:00 +12°C° 0.2 mm 8 mps 750 mmHg 68%
    14:00 +12°C° 0.2 mm 8 mps 751 mmHg 65%
    15:00 +12°C° 0.2 mm 8 mps 751 mmHg 63%
    16:00 +11°C° 0.2 mm 8 mps 751 mmHg 68%
    17:00 +10°C° 0.2 mm 7 mps 752 mmHg 72%
    18:00 +10°C° 0.2 mm 6 mps 752 mmHg 77%
    19:00 +9°C° 0.3 mm 6 mps 753 mmHg 81%
    20:00 +8°C° 0.3 mm 5 mps 754 mmHg 85%
    21:00 +7°C° 0.3 mm 5 mps 754 mmHg 89%
    22:00 +7°C° 0.3 mm 5 mps 755 mmHg 89%
    23:00 +6°C° 0.3 mm 5 mps 755 mmHg 89%
    Show more